DW5683 Weather Reports


time (UTC)temp
F
wind
direction
speed
knots
gust
knots
rain 1hr
in
rain 24hr
in
rain mn
in
humidity
%
barometer
mb
20260509071540 60 0 0.0 0.0 0.00 0.00 0.00 90 1013.8
20260509070044 60 0 0.0 0.0 0.00 0.00 0.00 89 1013.7
20260509064538 61 0 0.0 0.0 0.00 0.00 0.00 89 1013.6
20260509063038 61 0 0.0 0.0 0.00 0.00 0.00 89 1013.8
20260509061536 62 0 0.0 0.0 0.00 0.00 0.00 89 1013.8
20260509060046 62 0 0.0 0.0 0.00 0.00 0.00 88 1013.8
20260509054548 63 0 0.0 0.0 0.00 0.00 0.00 87 1013.7
20260509053038 63 0 0.0 0.0 0.00 0.00 0.00 86 1013.7
20260509051537 64 0 0.0 0.0 0.00 0.00 0.00 85 1013.6
20260509050037 64 0 0.0 0.0 0.00 0.00 0.00 83 1013.6
20260509044539 65 0 0.0 0.0 0.00 0.00 0.00 82 1013.6
20260509043038 66 0 0.0 0.0 0.00 0.00 0.00 79 1013.5
20260509041538 68 0 0.0 0.0 0.00 0.00 0.00 77 1013.2
20260509040057 69 0 0.0 0.0 0.00 0.00 0.00 75 1013.2
20260509034546 71 0 0.0 0.0 0.00 0.00 0.00 73 1013.0
20260509033038 73 0 0.0 0.0 0.00 0.00 0.00 70 1012.9
20260509031537 75 0 0.0 0.0 0.00 0.00 0.00 67 1012.9
20260509030035 78 0 0.0 0.0 0.00 0.00 0.00 62 1012.8
20260509024538 80 0 0.0 0.0 0.00 0.00 0.00 57 1012.7
20260509023038 80 0 0.0 0.0 0.00 0.00 0.00 55 1012.7
20260509021539 81 0 0.0 1.7 0.00 0.00 0.00 52 1012.7
20260509020040 82 0 0.0 2.6 0.00 0.00 0.00 48 1012.7
20260509014535 83 0 0.0 1.7 0.00 0.00 0.00 49 1012.8
20260509013044 83 230 1.7 5.2 0.00 0.00 0.00 49 1012.9
20260509011550 84 230 0.9 5.2 0.00 0.00 0.00 48 1012.9
20260509010042 84 230 1.7 5.2 0.00 0.00 0.00 48 1013.0
20260509004543 84 0 0.0 4.3 0.00 0.00 0.00 46 1013.0
20260509003035 85 230 1.7 4.3 0.00 0.00 0.00 46 1013.2
20260509001538 84 230 0.0 5.2 0.00 0.00 0.00 46 1013.3
20260509000038 84 0 0.0 3.5 0.00 0.00 0.00 49 1013.4
20260508234537 84 0 0.0 6.1 0.00 0.00 0.00 49 1013.5
20260508233039 84 229 0.0 3.5 0.00 0.00 0.00 50 1013.6
20260508231538 83 0 0.9 6.1 0.00 0.00 0.00 50 1013.8
20260508230036 84 229 0.9 5.2 0.00 0.00 0.00 51 1013.9
20260508224540 84 229 0.0 6.1 0.00 0.00 0.00 50 1014.0
20260508223043 83 227 0.9 6.1 0.00 0.00 0.00 53 1014.3
20260508221540 83 227 0.0 3.5 0.00 0.00 0.00 51 1014.6
20260508220036 83 227 0.9 4.3 0.00 0.00 0.00 53 1014.9
20260508214548 82 0 0.9 4.3 0.00 0.00 0.00 51 1015.0
20260508213038 82 227 0.9 4.3 0.00 0.00 0.00 52 1015.3
20260508211536 82 227 0.0 6.1 0.00 0.00 0.00 50 1015.5
20260508210035 81 223 0.9 3.5 0.00 0.00 0.00 51 1015.5
20260508204543 80 223 0.0 3.5 0.00 0.00 0.00 53 1015.8
20260508203037 80 0 0.9 3.5 0.00 0.00 0.00 51 1015.9
20260508201537 79 0 0.0 3.5 0.00 0.00 0.00 52 1016.0
20260508200035 78 220 0.9 4.3 0.00 0.00 0.00 58 1016.1
20260508194538 78 214 0.9 3.5 0.00 0.00 0.00 56 1016.3
20260508193042 77 213 0.9 3.5 0.00 0.00 0.00 58 1016.3
20260508191537 76 212 0.0 2.6 0.00 0.00 0.00 61 1016.4
20260508190036 76 212 0.0 3.5 0.00 0.00 0.00 61 1016.5
20260508184534 75 211 0.9 4.3 0.00 0.00 0.00 63 1016.6
20260508183032 74 209 0.0 2.6 0.00 0.00 0.00 65 1016.6
20260508181542 73 0 0.0 3.5 0.00 0.00 0.00 66 1016.7
20260508180040 72 206 0.9 2.6 0.00 0.00 0.00 68 1016.8
20260508174538 71 207 0.0 2.6 0.00 0.00 0.00 70 1016.7
20260508173038 69 0 0.0 2.6 0.00 0.00 0.00 71 1016.8
20260508171543 68 0 0.0 3.5 0.00 0.00 0.00 71 1016.9
20260508170041 69 208 0.0 1.7 0.00 0.00 0.00 70 1016.9
20260508164537 68 0 0.0 4.3 0.00 0.00 0.00 73 1016.8
20260508163045 66 207 0.0 2.6 0.00 0.00 0.00 75 1016.8
20260508161536 64 0 0.0 2.6 0.00 0.00 0.00 79 1017.0
20260508160057 62 208 0.0 2.6 0.00 0.00 0.00 82 1017.0
20260508154538 61 0 0.0 2.6 0.00 0.00 0.00 86 1017.1
20260508153045 58 0 0.0 2.6 0.00 0.00 0.00 89 1017.3
20260508151541 57 209 0.9 3.5 0.00 0.00 0.00 88 1017.2
20260508150038 57 214 0.0 2.6 0.00 0.00 0.00 91 1017.1
20260508144536 55 214 0.0 4.3 0.00 0.00 0.00 92 1016.8
20260508143043 55 0 0.0 2.6 0.00 0.00 0.00 92 1016.8
20260508141547 54 0 0.0 1.7 0.00 0.00 0.00 92 1016.5
20260508140043 53 0 0.0 3.5 0.00 0.00 0.00 92 1016.3
20260508134538 53 0 0.0 1.7 0.00 0.00 0.00 92 1016.1
20260508133047 53 0 0.0 0.0 0.00 0.00 0.00 92 1016.1
20260508131539 53 0 0.0 0.0 0.00 0.00 0.00 92 1016.1
20260508130036 53 0 0.0 0.0 0.00 0.00 0.00 91 1016.0
20260508124541 53 0 0.0 0.0 0.00 0.00 0.00 92 1015.7
20260508123038 53 0 0.0 0.0 0.00 0.00 0.00 91 1015.7
20260508121555 53 0 0.0 0.0 0.00 0.00 0.00 91 1015.6
20260508120038 53 0 0.0 0.0 0.00 0.00 0.00 91 1015.7
20260508114537 54 0 0.0 0.0 0.00 0.00 0.00 91 1015.6
20260508113036 54 0 0.0 0.0 0.00 0.00 0.00 91 1015.6
20260508111538 54 0 0.0 0.0 0.00 0.00 0.00 90 1015.7
20260508110048 55 0 0.0 0.0 0.00 0.00 0.00 91 1015.5
20260508104538 55 0 0.0 0.0 0.00 0.00 0.00 90 1015.5
20260508103040 55 0 0.0 0.0 0.00 0.00 0.00 90 1015.6
20260508101537 56 0 0.0 0.0 0.00 0.00 0.00 90 1015.6
20260508100034 56 0 0.0 0.0 0.00 0.00 0.00 89 1015.7
20260508094537 56 0 0.0 0.0 0.00 0.00 0.00 89 1015.7
20260508093038 57 0 0.0 0.0 0.00 0.00 0.00 88 1015.5
20260508091539 57 0 0.0 0.9 0.00 0.00 0.00 88 1015.7
20260508090038 58 0 0.0 2.6 0.00 0.00 0.00 88 1015.5
20260508084536 58 0 0.0 0.0 0.00 0.00 0.00 88 1015.4
20260508083117 59 0 0.0 0.0 0.00 0.00 0.00 88 1015.5
20260508081541 60 0 0.0 0.0 0.00 0.00 0.00 88 1015.6
20260508080041 60 0 0.0 0.0 0.00 0.00 0.00 87 1015.4
20260508074538 61 0 0.0 0.0 0.00 0.00 0.00 87 1015.2
20260508073037 61 0 0.0 0.0 0.00 0.00 0.00 86 1015.2